Regional Weather Roundup
Issued by NWS Jackson, KY

Home | Current Version | Previous Version | Text Only | Print | Product List | Glossary On
Versions: 1 2 3 4 5 6 7 8 9 10 11 12 13 14 15 16 17 18 19 20 21 22 23 24 25 26 27
000
ASUS43 KJKL 191810
RWRJKL

EAST KENTUCKY HOURLY WEATHER ROUNDUP
NATIONAL WEATHER SERVICE JACKSON KY
100 PM EST MON FEB 19 2018

NOTE: "FAIR" INDICATES FEW OR NO CLOUDS BELOW 12,000 FEET WITH
NO SIGNIFICANT WEATHER AND/OR OBSTRUCTIONS TO VISIBILITY.

* THESE REPORTS ARE NOT UNDER NWS QUALITY CONTROL AND MAY NOT
  REPORT WEATHER SUCH AS PRECIPITATION AND FOG.

KYZ079-080-083-085-087-088-110-112-115-119-120-191900
...EASTERN KENTUCKY...

CITY           SKY/WX    TMP DP  RH WIND       PRES   REMARKS
JACKSON        CLOUDY    71  55  56 S12G22    30.20F
6HR MIN TEMP:  54; 6HR MAX TEMP:  73;

LONDON         CLOUDY    69  56  62 S14G24    30.20F
6HR MIN TEMP:  58; 6HR MAX TEMP:  70;

SOMERSET*      CLOUDY    68  55  64 MISG      30.20F
WILLIAMSBURG*  CLOUDY    70  55  60 SW13G30   30.21F
MIDDLESBORO*   CLOUDY    61  53  74 S9        30.28F
6HR MIN TEMP:  51; 6HR MAX TEMP:  61;

HARLAN APT*    CLOUDY    63  52  67 CALM      30.27F
PIKE CO APT*   PTSUNNY   73  55  53 S15G26    30.21F
BIG SANDY APT* MOCLDY    73  57  56 SW9G17    30.19F
6HR MIN TEMP:  55; 6HR MAX TEMP:  74;

MOREHEAD APT*  MOCLDY    72  57  60 S13G25    30.16F
ASHLAND*         N/A     70  57  63 SW12G21   30.14F
$$

KYZ035-036-041-042-044-050-067-078-099-191900
...CENTRAL KENTUCKY...

CITY           SKY/WX    TMP DP  RH WIND       PRES   REMARKS
MT STERLING*   CLOUDY    72  57  60 SW15G28   30.16F
FLEMING/MASON* CLOUDY    70  59  68 SW17G26   30.13F
DANVILLE*      PTSUNNY   70  57  64 SW16G24   30.15S
LEXINGTON      CLOUDY    72  58  61 S20G31    30.12F
6HR MIN TEMP:  57; 6HR MAX TEMP:  72;

FRANKFORT      CLOUDY    72  57  59 S18G29    30.09F
6HR MIN TEMP:  59; 6HR MAX TEMP:  72;

LOUISVILLE     PTSUNNY   75  57  53 SW18G36   30.07S
6HR MIN TEMP:  60; 6HR MAX TEMP:  76;

LEBANON*       MOCLDY    72  57  60 S20G26    30.12F
GLASGOW*       PTSUNNY   73  59  62 S14G26    30.14F
BOWLING GREEN  PTSUNNY   74  60  61 S17G31    30.13F
6HR MIN TEMP:  59; 6HR MAX TEMP:  74;

$$

KYZ091>093-OHZ055-061-077-WVZ005-015-034-035-042-191900
...SOUTHERN OHIO/WEST VIRGINIA...

CITY           SKY/WX    TMP DP  RH WIND       PRES   REMARKS
COVINGTON      CLOUDY    70  58  65 SW23G31   30.06S
COLUMBUS       CLOUDY    60  56  86 S9        30.06F
DAYTON         LGT RAIN  63  60  90 SW16      30.05S
WILMINGTON     CLOUDY    66  60  81 S15       30.05F
HUNTINGTON       N/A     71  56  58 S9        30.15F
CHARLESTON     PTSUNNY   71  56  58 S17G23    30.18F
BECKLEY        PTSUNNY   62  51  67 SE12      30.27F
BLUEFIELD        N/A     60  48  64 S9        30.30F
LOGAN CO APT*    N/A     68  54  60 S10G20    30.21F
$$

VAZ002-007-008-TNZ017-027-036-066-071-191900
...SOUTHWEST VIRGINIA/EAST TENNESSEE...

CITY           SKY/WX    TMP DP  RH WIND       PRES   REMARKS
WISE*            N/A     64  54  68 S13G22    30.29F
JONESVILLE*      N/A     64  54  68 CALM      30.30F
ABINGDON*        N/A     70  56  61 W9        30.28F
BRISTOL          N/A     71  57  61 CALM      30.27F
SEVIERVILLE*   PTCLDY    63  54  72 CALM      30.27F
KNOXVILLE      CLOUDY    66  56  70 CALM      30.26F
LAFOLLETTE*    PTCLDY    66  55  68 SW8       30.29F
OAK RIDGE      CLOUDY    64  57  78 W5        30.28F
CROSSVILLE     CLOUDY    60  56  86 S9G18     30.28S
NASHVILLE      PTSUNNY   75  56  51 S20G33    30.16F
$$

...KEY TO REMARKS...
VSB - VISIBILITY IN MILES
WCI - WIND CHILL INDEX
HX  - HEAT INDEX

$$




USA.gov is the U.S. government's official web portal to all federal, state and local government web resources and services.